Regional Weather Roundup
Issued by NWS

Home | Current Version | Previous Version | Text Only | Print | Product List | Glossary Off
Versions: 1 2 3 4 5 6 7 8 9 10 11 12 13 14 15 16 17 18 19 20 21 22 23 24 25 26 27 28 29 30 31 32 33 34 35 36 37 38 39 40 41 42 43 44 45 46 47 48 49 50

000
ASUS44 KMEG 290610
RWRTN
TENNESSEE HOURLY STATE WEATHER ROUNDUP
NATIONAL WEATHER SERVICE MEMPHIS TN
100 AM CDT FRI AUG 29 2014

TNZ002-004-019-021-049-052-054-088>092-290700-
WEST TENNESSEE

CITY           SKY/WX    TMP DP  RH WIND       PRES   REMARKS
MEMPHIS INTL   FAIR      80  69  69 S3        29.98R
NWS MEMPHIS      N/A     76 N/A N/A MISG        N/A
JACKSON        FAIR      75  72  90 E5        29.99R
DYERSBURG      FAIR      73  63  68 NE7       29.99S
UNION CITY     CLEAR     72  70  94 CALM      29.98S
PARIS          CLEAR     70  68  94 E3        30.00F
HUNTINGDON     FAIR      71  69  93 CALM      30.00S
LEXINGTON      CLEAR     73  72  94 CALM      29.99S
SAVANNAH       CLEAR     70  70 100 CALM      30.00R
$$

TNZ008-025-027-028-033-062-065-066-290700-
NORTH MIDDLE TENNESSEE

CITY           SKY/WX    TMP DP  RH WIND       PRES   REMARKS
NASHVILLE      FAIR      75  72  90 CALM      30.02R
DICKSON        FAIR      72  70  94 CALM      30.02R
CLARKSVILLE    FAIR      74  70  87 NE3       30.00F
LEBANON        FAIR      73  70  91 CALM      30.01R
SMYRNA         FAIR      76  73  90 CALM      30.03R
MURFREESBORO   FAIR      76  71  84 CALM      30.01S
COOKEVILLE       N/A     68  68 100 CALM      30.05R VSB 3/4
GALLATIN       FAIR      76  75  96 CALM      30.03S
CROSSVILLE     FAIR      73  66  78 CALM      30.10S HAZE
$$

TNZ061-075-076-078-094-096-097-290700-
SOUTH MIDDLE TENNESSEE

CITY           SKY/WX    TMP DP  RH WIND       PRES   REMARKS
LEWISBURG      FAIR      69  68  97 CALM      30.02R
FAYETTEVILLE   CLEAR     70  64  83 S3        30.03S
TULLAHOMA      CLEAR     66  64  94 CALM      30.06R
WINCHESTER     CLEAR     70  66  88 CALM      30.05R
MCMINNVILLE    CLOUDY    70  70 100 CALM      30.05R VSB 0
COLUMBIA         N/A     72  72 100 CALM      30.01R
SHELBYVILLE    CLEAR     72  72 100 E3        30.03S
$$

TNZ017-018-042-046-047-290700-
NORTHEAST TENNESSEE

CITY           SKY/WX    TMP DP  RH WIND       PRES   REMARKS
TRI CITIES     FAIR      68  65  90 CALM      30.09S
ELIZABETHTON   CLEAR     66  64  94 CALM      30.10S
$$

TNZ012-013-036-069-073-074-290700-
CENTRAL EAST TENNESSEE

CITY           SKY/WX    TMP DP  RH WIND       PRES   REMARKS
KNOXVILLE      FAIR      74  71  91 CALM      30.03S
OAK RIDGE      FAIR      74  71  91 CALM      30.06S
GATLINBURG     CLEAR     70  68  94 CALM      30.05R
MORRISTOWN     CLEAR     73  70  88 NE6       30.08S
$$

TNZ083-085-099-290700-
SOUTHEAST TENNESSEE

CITY           SKY/WX    TMP DP  RH WIND       PRES   REMARKS
CHATTANOOGA    FAIR      73  67  81 CALM      30.04S
$$

SKY/WX REPORTED AS FAIR MEANS FEW OR NO CLOUDS BELOW
12 THOUSAND FEET.




USA.gov is the U.S. government's official web portal to all federal, state and local government web resources and services.